User: anonymous   Login
Location: Hobi?a Gr?di?te
(45.4833°N, 22.7833°E)
Time: 02:25:40
(UTC+00:00)
Language:

Cosmos 1536 Rocket - Orbit

View from above orbital plane
View from above orbital plane
View from above satellite
View from above satellite

Ground track
Ground track

The orbit data is extracted from the following two-line orbital elements,

1 14700U 84013B   23152.44925394  .00000493  00000-0  56395-4 0  9999
2 14700  82.5359 284.1409 0019409 359.6674  63.3291 14.83832132102379
Epoch (UTC): 01 June 2023 10:46:55
Eccentricity: 0.0019409
inclination: 82.5359°
perigee height: 603 km
apogee height: 631 km
right ascension of ascending node: 284.1409°
argument of perigee: 359.6674°
revolutions per day: 14.83832132
mean anomaly at epoch: 63.3291°
orbit number at epoch: 10237

The dashed part of the orbit path shows where the satellite is in the earth's shadow,  

DLR